Le nostre stazioni meteo in Italia

Pubblicità
Il mio iltempo24.it
Kinbrace, Gran Bretagna (99016): Temperatura & dewpoint: 18.06.2018 21:00:00 - 24.06.2018 21:00:00 (BST)Kinbrace, Gran Bretagna (99016): velocità del vento & gusts: 18.06.2018 21:00:00 - 24.06.2018 21:00:00 (BST)Kinbrace, Gran Bretagna (99016): direzione del vento: 18.06.2018 21:00:00 - 24.06.2018 21:00:00 (BST)Kinbrace, Gran Bretagna (99016): precipitazioni: 18.06.2018 21:00:00 - 24.06.2018 21:00:00 (BST)
Data & Tempo tt [°C] td [°C] ff [km/h] ff [kn] fx [km/h] fx [kn] dd rr [mm]
24.06.2018 21:00:00 - - - - - - - -
24.06.2018 20:00:00 - - - - - - - -
24.06.2018 19:00:00 17,6 7,6 16 9 - - NO 0,0
24.06.2018 18:00:00 18,5 7,8 21 11 - - NNO 0,0
24.06.2018 17:00:00 20,0 8,5 16 9 - - ONO 0,0
24.06.2018 16:00:00 20,1 7,9 13 7 - - NO 0,0
24.06.2018 15:00:00 19,6 8,1 13 7 - - OSO 0,0
24.06.2018 14:00:00 18,7 9,0 11 6 - - ONO 0,0
24.06.2018 13:00:00 18,9 9,6 13 7 - - ONO 0,0
24.06.2018 12:00:00 17,2 8,6 13 7 - - NO 0,0
24.06.2018 11:00:00 15,8 8,1 21 11 - - NO 0,0
24.06.2018 10:00:00 15,3 5,7 5 3 - - O 0,0
24.06.2018 09:00:00 13,7 7,8 8 4 - - OSO 0,0
24.06.2018 08:00:00 12,2 7,3 8 4 - - OSO 0,0
24.06.2018 07:00:00 11,1 7,6 9 5 - - O 0,0
24.06.2018 06:00:00 11,0 7,8 8 4 - - O 0,0
24.06.2018 05:00:00 10,8 9,0 4 2 - - E 0,0
24.06.2018 04:00:00 10,8 8,8 5 3 - - SO 0,0
24.06.2018 03:00:00 10,9 8,9 11 6 - - SSO 0,0
24.06.2018 02:00:00 10,9 9,2 9 5 - - SSO 0,0
24.06.2018 01:00:00 10,7 9,2 4 2 - - SE 0,0
24.06.2018 00:00:00 10,9 8,9 4 2 - - N 0,0
23.06.2018 23:00:00 11,9 9,2 9 5 - - SSO 0,0
23.06.2018 22:00:00 12,3 9,0 13 7 - - OSO 0,0
23.06.2018 21:00:00 13,0 9,3 28 15 - - ONO 0,0
23.06.2018 20:00:00 13,1 9,5 26 14 46 25 ONO 0,0
23.06.2018 19:00:00 14,5 9,7 29 16 - - NO 0,0
23.06.2018 18:00:00 14,7 10,1 34 18 48 26 ONO 0,0
23.06.2018 17:00:00 14,8 10,2 31 17 46 25 ONO 0,0
23.06.2018 16:00:00 15,3 10,2 21 11 - - O 0,0
23.06.2018 15:00:00 14,9 10,0 21 11 - - O 0,0
23.06.2018 14:00:00 14,8 9,5 21 11 - - O 0,0
23.06.2018 13:00:00 14,8 9,3 21 11 - - O 0,0
23.06.2018 12:00:00 13,3 8,0 24 13 - - SO 0,0
23.06.2018 11:00:00 13,9 7,5 21 11 - - O 0,0
23.06.2018 10:00:00 12,6 7,5 11 6 - - O 0,0
23.06.2018 09:00:00 11,2 7,5 18 10 - - O 0,0
23.06.2018 08:00:00 11,4 6,6 9 5 - - O 0,0
23.06.2018 07:00:00 11,0 6,6 15 8 - - ONO 0,0
23.06.2018 06:00:00 10,5 6,1 15 8 - - ONO 0,0
23.06.2018 05:00:00 10,2 5,8 18 10 - - ONO 0,0
23.06.2018 04:00:00 9,4 5,7 8 4 - - O 0,0
23.06.2018 03:00:00 9,8 5,5 5 3 - - O 0,0
23.06.2018 02:00:00 10,3 5,6 15 8 - - O 0,0
23.06.2018 01:00:00 10,4 6,0 16 9 - - NO 0,0
23.06.2018 00:00:00 10,3 6,2 21 11 - - ONO 0,0
22.06.2018 23:00:00 10,4 5,9 16 9 - - ONO 0,0
22.06.2018 22:00:00 10,7 6,1 18 10 - - ONO 0,0
22.06.2018 21:00:00 11,7 6,3 18 10 - - ONO 0,0
22.06.2018 20:00:00 12,4 5,6 28 15 50 27 ONO 0,0
22.06.2018 19:00:00 12,3 6,0 31 17 - - ONO 0,0
22.06.2018 18:00:00 13,4 5,8 37 20 50 27 ONO 0,0
22.06.2018 17:00:00 13,7 5,9 31 17 50 27 ONO 0,0
22.06.2018 16:00:00 15,2 6,6 35 19 54 29 ONO 0,0
22.06.2018 15:00:00 13,3 6,5 31 17 50 27 ONO 0,0
22.06.2018 14:00:00 15,2 7,5 35 19 54 29 ONO 0,0
22.06.2018 13:00:00 15,5 7,6 37 20 52 28 NO 0,0
22.06.2018 12:00:00 13,3 6,9 29 16 - - ONO 0,0
22.06.2018 11:00:00 11,8 7,4 24 13 - - NO 0,0
22.06.2018 10:00:00 11,0 7,5 28 15 - - NO 0,0
22.06.2018 09:00:00 10,8 7,3 24 13 - - NO 0,0
22.06.2018 08:00:00 10,5 6,8 15 8 - - ONO 0,0
22.06.2018 07:00:00 9,3 6,6 15 8 - - NO 0,0
22.06.2018 06:00:00 7,0 5,8 4 2 - - NNO 0,0
22.06.2018 05:00:00 6,9 5,4 2 1 - - O 0,0
22.06.2018 04:00:00 6,5 5,8 4 2 - - SSE 0,0
22.06.2018 03:00:00 4,0 3,5 2 1 - - OSO 0,0
22.06.2018 02:00:00 4,1 3,3 2 1 - - NNE 0,0
22.06.2018 01:00:00 4,3 3,4 11 6 - - ONO 0,0
22.06.2018 00:00:00 5,5 4,1 13 7 - - NO 0,0
21.06.2018 23:00:00 6,8 4,1 13 7 - - ONO 0,0
21.06.2018 22:00:00 8,9 5,7 22 12 - - NO 0,0
21.06.2018 21:00:00 10,3 5,6 29 16 46 25 NNO 0,0
21.06.2018 20:00:00 11,5 5,0 39 21 57 31 NNO 0,0
21.06.2018 19:00:00 12,4 3,8 42 23 61 33 NNO 0,0
21.06.2018 18:00:00 12,8 4,4 42 23 61 33 NO 0,0
21.06.2018 17:00:00 12,8 4,2 42 23 63 34 NNO 0,0
21.06.2018 16:00:00 13,6 4,4 44 24 70 38 NNO 0,0
21.06.2018 15:00:00 13,9 5,4 46 25 67 36 NO 0,0
21.06.2018 14:00:00 12,3 2,6 44 24 68 37 NO 0,0
21.06.2018 13:00:00 12,6 4,1 46 25 70 38 NO 0,0
21.06.2018 12:00:00 11,8 4,0 50 27 68 37 NNO 0,0
21.06.2018 11:00:00 11,1 4,1 44 24 61 33 NO 0,0
21.06.2018 10:00:00 11,1 6,3 37 20 57 31 NNO 0,0
21.06.2018 09:00:00 9,2 5,6 35 19 54 29 NNO 0,0
21.06.2018 08:00:00 9,0 6,3 34 18 52 28 NO 0,0
21.06.2018 07:00:00 8,5 6,2 28 15 - - NO 0,0
21.06.2018 06:00:00 7,5 6,5 16 9 - - NO 0,0
21.06.2018 05:00:00 6,2 4,6 18 10 - - NO 0,0
21.06.2018 04:00:00 6,7 5,5 18 10 - - NNO 0,2
21.06.2018 03:00:00 6,5 5,7 11 6 - - NO 0,0
21.06.2018 02:00:00 6,3 5,3 16 9 - - NO 0,2
21.06.2018 01:00:00 5,8 5,0 13 7 - - NO 0,2
21.06.2018 00:00:00 5,1 3,9 2 1 - - ONO 0,0
20.06.2018 23:00:00 6,9 5,3 2 1 - - NO 0,0
20.06.2018 22:00:00 7,7 5,5 4 2 - - E 0,0
20.06.2018 21:00:00 7,2 5,0 16 9 - - N 0,0
20.06.2018 20:00:00 10,1 6,6 11 6 - - ONO 0,2
20.06.2018 19:00:00 10,0 6,4 15 8 - - NO 0,0
20.06.2018 18:00:00 9,9 6,2 22 12 - - NO 0,0
20.06.2018 17:00:00 10,3 7,3 13 7 - - ONO 0,8
20.06.2018 16:00:00 9,4 5,9 16 9 46 25 O 0,8
20.06.2018 15:00:00 13,0 4,6 24 13 - - O 0,0
20.06.2018 14:00:00 12,1 6,7 15 8 - - N 0,0
20.06.2018 13:00:00 11,5 7,2 26 14 46 25 N 0,0
20.06.2018 12:00:00 13,4 5,8 15 8 - - NO 0,0
20.06.2018 11:00:00 12,8 6,7 11 6 - - ONO 0,0
20.06.2018 10:00:00 10,1 7,6 9 5 - - ONO 0,0
20.06.2018 09:00:00 9,9 7,5 9 5 - - NO 0,0
20.06.2018 08:00:00 9,3 8,1 5 3 - - ONO 0,6
20.06.2018 07:00:00 8,1 7,9 4 2 - - NNO 1,8
20.06.2018 06:00:00 7,8 7,6 5 3 - - NNO 0,4
20.06.2018 05:00:00 7,6 7,1 4 2 - - SO 0,8
20.06.2018 04:00:00 7,6 6,9 5 3 - - NO 0,0
20.06.2018 03:00:00 7,4 6,1 4 2 - - N 0,0
20.06.2018 02:00:00 7,7 6,3 2 1 - - ESE 0,2
20.06.2018 01:00:00 8,1 5,5 2 1 - - N 0,0
20.06.2018 00:00:00 8,5 5,2 2 1 - - SE 0,0
19.06.2018 23:00:00 9,2 5,2 5 3 - - NO 0,0
19.06.2018 22:00:00 - - - - - - - 0,0
19.06.2018 21:00:00 - - - - - - - 0,0
19.06.2018 20:00:00 - - - - - - - 0,0
19.06.2018 19:00:00 - - - - - - - 0,0
19.06.2018 18:00:00 - - - - - - - 0,0
19.06.2018 17:00:00 - - - - - - - 0,0
19.06.2018 16:00:00 - - - - - - - 0,0
19.06.2018 15:00:00 - - - - - - - 0,0
19.06.2018 14:00:00 - - - - - - - 0,0
19.06.2018 13:00:00 - - - - - - - 0,0
19.06.2018 12:00:00 - - - - - - - 0,0
19.06.2018 11:00:00 13,8 7,1 35 19 61 33 O 0,0
19.06.2018 10:00:00 13,0 6,6 37 20 52 28 O 0,0
19.06.2018 09:00:00 11,5 6,0 29 16 46 25 O 0,0
19.06.2018 08:00:00 11,4 6,0 28 15 - - OSO 0,0
19.06.2018 07:00:00 10,0 5,6 26 14 52 28 O 0,0
19.06.2018 06:00:00 9,3 5,1 31 17 48 26 O 0,0
19.06.2018 05:00:00 8,5 4,8 24 13 - - O 0,0
19.06.2018 04:00:00 8,3 5,6 22 12 46 25 O 0,0
19.06.2018 03:00:00 7,7 5,0 21 11 - - O 0,0
19.06.2018 02:00:00 8,0 4,4 21 11 - - O 0,0
19.06.2018 01:00:00 8,0 5,2 18 10 - - O 0,2
19.06.2018 00:00:00 8,9 5,1 29 16 55 30 O 0,0
18.06.2018 23:00:00 8,9 5,8 21 11 54 29 O 0,0
18.06.2018 22:00:00 9,3 5,6 28 15 55 30 O 0,0
18.06.2018 21:00:00 10,7 5,1 31 17 57 31 O 0,0

tt = Temperatura
td = dewpoint
ff = velocità del vento
fx = gusts
dd = direzione del vento
rr = precipitazioni

Stazioni seguenti

WeatherPro
AMSI
MeteoEarth